TimeAEST,TemperatureF,Dew PointF,Humidity,Sea Level PressureIn,VisibilityMPH,Wind Direction,Wind SpeedMPH,Gust SpeedMPH,PrecipitationIn,Events,Conditions,WindDirDegrees,DateUTC
12:00 AM,61,54,70,30.38,16,North,3.5,,,,Partly Cloudy,350,2013-09-04 14:00:00
12:00 AM,60.8,53.6,77,30.36,-9999.0,North,3.5,-,N/A,,Clear,350,2013-09-04 14:00:00
12:30 AM,60.8,53.6,77,30.36,-9999.0,North,3.5,-,N/A,,Clear,10,2013-09-04 14:30:00
1:00 AM,59,53,75,30.37,,North,4.6,,,,,10,2013-09-04 15:00:00
1:00 AM,59.0,53.6,82,30.36,-9999.0,North,4.6,-,N/A,,Clear,10,2013-09-04 15:00:00
1:30 AM,57.2,53.6,88,30.33,-9999.0,NNE,4.6,-,N/A,,Clear,20,2013-09-04 15:30:00
2:00 AM,58,53,79,30.34,,NNE,4.6,,,,,30,2013-09-04 16:00:00
2:00 AM,57.2,53.6,88,30.33,-9999.0,NNE,4.6,-,N/A,,Clear,30,2013-09-04 16:00:00
2:30 AM,57.2,53.6,88,30.33,-9999.0,North,4.6,-,N/A,,Clear,10,2013-09-04 16:30:00
3:00 AM,57,52,79,30.33,16,NW,6.9,,,,Partly Cloudy,320,2013-09-04 17:00:00
3:00 AM,57.2,51.8,82,30.30,-9999.0,NW,6.9,-,N/A,,Clear,320,2013-09-04 17:00:00
3:30 AM,55.4,51.8,88,30.30,-9999.0,NNW,5.8,-,N/A,,Clear,340,2013-09-04 17:30:00
4:00 AM,56,52,80,30.33,,NW,5.8,,,,,320,2013-09-04 18:00:00
4:00 AM,55.4,51.8,88,30.30,-9999.0,NW,5.8,-,N/A,,Clear,320,2013-09-04 18:00:00
4:30 AM,55.4,51.8,88,30.33,-9999.0,NNW,6.9,-,N/A,,Clear,330,2013-09-04 18:30:00
5:00 AM,54,50,83,30.33,,NNW,8.1,,,,,340,2013-09-04 19:00:00
5:00 AM,53.6,50.0,88,30.30,-9999.0,NNW,8.1,-,N/A,,Clear,340,2013-09-04 19:00:00
5:30 AM,55.4,50.0,82,30.33,-9999.0,NNW,10.4,-,N/A,,Clear,330,2013-09-04 19:30:00
6:00 AM,55,50,78,30.34,9,NNW,8.1,,,,Haze,330,2013-09-04 20:00:00
6:00 AM,55.4,50.0,82,30.33,-9999.0,NNW,8.1,-,N/A,,Clear,330,2013-09-04 20:00:00
6:30 AM,55.4,50.0,82,30.33,-9999.0,NW,10.4,-,N/A,,Clear,320,2013-09-04 20:30:00
7:00 AM,57,50,70,30.35,,NW,9.2,,,,,320,2013-09-04 21:00:00
7:00 AM,57.2,50.0,77,30.33,-9999.0,NW,9.2,-,N/A,,Clear,320,2013-09-04 21:00:00
7:30 AM,59.0,50.0,72,30.33,-9999.0,NNW,8.1,-,N/A,,Clear,330,2013-09-04 21:30:00
8:00 AM,60,50,61,30.35,,NW,9.2,,,,,320,2013-09-04 22:00:00
8:00 AM,60.8,50.0,68,30.33,-9999.0,NW,9.2,-,N/A,,Clear,320,2013-09-04 22:00:00
8:30 AM,62.6,50.0,63,30.33,-9999.0,NW,9.2,-,N/A,,Clear,310,2013-09-04 22:30:00
9:00 AM,65,51,49,30.34,11,NW,8.1,,,,Haze,310,2013-09-04 23:00:00
9:00 AM,66.2,50.0,56,30.33,-9999.0,NW,8.1,-,N/A,,Clear,310,2013-09-04 23:00:00
9:30 AM,68.0,50.0,52,30.33,-9999.0,NW,8.1,-,N/A,,Clear,310,2013-09-04 23:30:00
10:00 AM,72,49,33,30.32,,NW,10.4,,,,,320,2013-09-05 00:00:00
10:00 AM,71.6,48.2,43,30.30,-9999.0,NW,10.4,-,N/A,,Clear,320,2013-09-05 00:00:00
10:30 AM,75.2,48.2,38,30.30,-9999.0,NW,9.2,-,N/A,,Clear,310,2013-09-05 00:30:00
11:00 AM,76,46,24,30.30,,NW,8.1,,,,,310,2013-09-05 01:00:00
11:00 AM,75.2,46.4,36,30.30,-9999.0,NW,8.1,-,N/A,,Clear,310,2013-09-05 01:00:00
11:30 AM,78.8,42.8,28,30.27,-9999.0,NW,9.2,-,N/A,,Clear,320,2013-09-05 01:30:00
12:00 PM,80,43,17,30.27,12,NW,8.1,,,,Haze,320,2013-09-05 02:00:00
12:00 PM,80.6,42.8,26,30.24,-9999.0,NW,8.1,-,N/A,,Clear,320,2013-09-05 02:00:00
12:30 PM,80.6,44.6,28,30.24,-9999.0,West,10.4,-,N/A,,Clear,280,2013-09-05 02:30:00
1:00 PM,80,45,19,30.24,,WSW,6.9,,,,,250,2013-09-05 03:00:00
1:00 PM,80.6,44.6,28,30.21,-9999.0,WSW,6.9,-,N/A,,Clear,250,2013-09-05 03:00:00
1:30 PM,82.4,44.6,26,30.21,-9999.0,West,5.8,-,N/A,,Clear,280,2013-09-05 03:30:00
2:00 PM,81,46,19,30.22,,WNW,9.2,,,,,300,2013-09-05 04:00:00
2:00 PM,80.6,46.4,30,30.21,-9999.0,WNW,9.2,-,N/A,,Clear,300,2013-09-05 04:00:00
2:30 PM,84.2,44.6,25,30.18,-9999.0,WNW,9.2,-,N/A,,Clear,290,2013-09-05 04:30:00
3:00 PM,85,45,16,30.21,16,NW,9.2,,,,Haze,320,2013-09-05 05:00:00
3:00 PM,84.2,44.6,25,30.18,-9999.0,NW,9.2,-,N/A,,Clear,310,2013-09-05 05:00:00
3:30 PM,84.2,44.6,25,30.18,-9999.0,NW,8.1,-,N/A,,Clear,320,2013-09-05 05:30:00
4:00 PM,83,44,16,30.20,,SW,5.8,,,,,230,2013-09-05 06:00:00
4:00 PM,82.4,44.6,26,30.18,-9999.0,SW,5.8,-,N/A,,Clear,230,2013-09-05 06:00:00
4:30 PM,80.6,48.2,32,30.18,-9999.0,East,11.5,-,N/A,,Clear,90,2013-09-05 06:30:00
5:00 PM,76,47,25,30.22,,East,12.7,,,,,90,2013-09-05 07:00:00
5:00 PM,75.2,46.4,36,30.21,-9999.0,East,12.7,-,N/A,,Clear,90,2013-09-05 07:00:00
5:30 PM,71.6,51.8,50,30.21,-9999.0,ENE,12.7,-,N/A,,Clear,60,2013-09-05 07:30:00
6:00 PM,72,55,44,30.24,19,ENE,11.5,,,,Partly Cloudy,60,2013-09-05 08:00:00
6:00 PM,71.6,55.4,57,30.21,-9999.0,ENE,11.5,-,N/A,,Clear,60,2013-09-05 08:00:00
6:30 PM,71.6,55.4,57,30.24,-9999.0,NE,5.8,-,N/A,,Clear,40,2013-09-05 08:30:00
7:00 PM,70,57,53,30.25,,NNE,6.9,,,,,20,2013-09-05 09:00:00
7:00 PM,69.8,57.2,64,30.24,-9999.0,NNE,6.9,-,N/A,,Clear,20,2013-09-05 09:00:00
7:30 PM,69.8,57.2,64,30.24,-9999.0,NE,5.8,-,N/A,,Clear,40,2013-09-05 09:30:00
8:00 PM,69,58,58,30.25,,NNE,4.6,,,,,30,2013-09-05 10:00:00
8:00 PM,68.0,57.2,68,30.24,-9999.0,NNE,4.6,-,N/A,,Clear,30,2013-09-05 10:00:00
8:30 PM,68.0,59.0,73,30.24,-9999.0,ENE,4.6,-,N/A,,Clear,60,2013-09-05 10:30:00
9:00 PM,65,60,81,30.26,16,Calm,Calm,,,,Haze,,2013-09-05 11:00:00
9:00 PM,66.2,60.8,83,30.24,-9999.0,Calm,Calm,-,N/A,,Clear,0,2013-09-05 11:00:00
9:30 PM,66.2,59.0,78,30.24,-9999.0,WSW,5.8,-,N/A,,Clear,240,2013-09-05 11:30:00
10:00 PM,68,55,54,30.26,,WSW,4.6,,,,,250,2013-09-05 12:00:00
10:00 PM,68.0,55.4,64,30.24,-9999.0,WSW,4.6,-,N/A,,Clear,250,2013-09-05 12:00:00
11:00 PM,68,54,52,30.27,,NW,5.8,,,,,320,2013-09-05 13:00:00
11:00 PM,68.0,55.4,64,30.24,-9999.0,NW,5.8,-,N/A,,Clear,320,2013-09-05 13:00:00
11:30 PM,68.0,53.6,60,30.24,-9999.0,North,8.1,-,N/A,,Clear,350,2013-09-05 13:30:00